Hourly Data Report for March 24, 2016

DAWSON
YUKON TERRITORY

64°03'39.076" N
139°07'36.000" W
370.00 m
2100LRP
71966
WON

Download Data

Hourly Data (March 2016)
Hourly Data Report for March 24, 2016
TIME
LST
Temp Definition
°C
Dew Point Definition
°C
Rel Hum Definition
%
Precip. Amount Definition
mm

Wind Dir Definition
10's deg

Wind Spd Definition
km/h
Visibility Definition
km
Stn Press Definition
kPa
Hmdx Definition


Wind Chill Definition


Weather Definition


00:00 -8.2 -11.7 76 0.0 8 3   96.20   -10 LegendNANA
01:00 -7.9 -11.0 79 0.2 6 2   96.23   -9 LegendNANA
02:00 -8.7 -12.0 78 0.0 8 7   96.24   -13 LegendNANA
03:00 -8.5 -12.2 75 0.0 9 9   96.26   -13 LegendNANA
04:00 -9.0 -12.6 75 0.0 9 10   96.28   -14 LegendNANA
05:00 -9.2 -12.6 76 0.0 9 7   96.30   -13 LegendNANA
06:00 -8.5 -12.5 73 0.0 9 8   96.33   -13 LegendNANA
07:00 -9.2 -13.0 74 0.0 9 12   96.38   -15 LegendNANA
08:00 -10.7 -13.9 77 0.0 9 8   96.43   -15 LegendNANA
09:00 -9.5 -13.6 72 0.2 8 8   96.46   -14 LegendNANA
10:00 -7.1 -12.6 65 0.0 10 6   96.46   -10 LegendNANA
11:00 -3.4 -11.7 53 0.0 10 5   96.46   -5 LegendNANA
12:00 -0.7 -11.8 43 0.0 13 4   96.47   -2 LegendNANA
13:00 1.8 -12.0 35 0.0 10 3   96.45     LegendNANA
14:00 3.3 -9.9 37 0.0 6 4   96.44     LegendNANA
15:00 4.7 -10.4 32 0.0 33 4   96.44     LegendNANA
16:00 5.8 -10.5 30 0.0 8 1   96.43     LegendNANA
17:00 5.4 -10.5 31 0.0 10 2   96.44     LegendNANA
18:00 5.2 -9.2 35 0.0 5 2   96.45     LegendNANA
19:00 2.3 -7.7 47 0.0 31 4   96.47     LegendNANA
20:00 -2.9 -7.6 70 0.2 6 3   96.51   -4 LegendNANA
21:00 -4.1 -7.7 76 0.2 6 2   96.55   -5 LegendNANA
22:00 -6.2 -9.3 79 0.2 7 5   96.57   -9 LegendNANA
23:00 -5.0 -9.6 70 0.0 8 10   96.62   -9 LegendNANA

Notes on Data Quality.

Legend

  • E = Estimated
  • M = Missing
  • NA = Not Available*
  • [empty] = Indicates an unobserved value
Date modified: